Tracking 29777 objects as of 6-Oct-2024
HD Live streaming from Space Station
objects crossing your sky now

THOR ABLESTAR DEB

Track THOR ABLESTAR DEB now!
10-day predictions


NORAD ID: 643
Int'l Code: 1961-015GU
Perigee: 895.6 km
Apogee: 1,379.8 km
Inclination: 66.4 °
Period: 107.9 minutes
Semi major axis: 7508 km
RCS: 0.0691 m2 (small)
Launch date: June 29, 1961
Source: United States (US)
Launch site: AIR FORCE EASTERN TEST RANGE (AFETR)

Note: This is SATELLITE DEBRIS
Your satellite tracking list
Your tracking list is empty




NASA's NSSDC Master Catalog

Two Line Element Set (TLE):
1 00643U 61015GU  24279.69363332  .00002896  00000-0  44281-2 0  9991
2 00643  66.3726  21.0899 0322409  24.3494 337.2406 13.34298224 27259
Source of the keplerian elements: AFSPC